GW2929 Weather Reports


Display with metric or nautical units.
time (UTC)temp
F
wind
direction
speed
MPH
gust
MPH
rain 1hr
in
rain 24hr
in
rain mn
in
humidity
%
barometer
mb
20260505022051 75 195 1.0 2.0 0.00 0.00 0.00 88 1005.8
20260505021548 75 93 0.0 2.0 0.00 0.00 0.00 88 1005.8
20260505021045 75 172 1.0 1.0 0.00 0.00 0.00 88 1005.6
20260505020544 75 166 2.0 2.0 0.00 0.00 0.00 88 1005.4
20260505020042 75 168 2.0 3.0 0.00 0.00 0.00 88 1005.5
20260505015539 75 109 2.0 4.0 0.00 0.00 0.00 88 1005.6
20260505015035 75 115 4.0 6.0 0.00 0.00 0.00 88 1005.5
20260505014532 75 188 1.0 2.0 0.00 0.00 0.00 87 1005.2
20260505014030 75 111 3.0 7.0 0.00 0.00 0.00 87 1005.5
20260505013527 75 193 0.0 1.0 0.00 0.00 0.00 87 1005.5
20260505013024 75 188 1.0 2.0 0.00 0.00 0.00 86 1005.5
20260505012522 75 169 1.0 2.0 0.00 0.00 0.00 86 1005.6
20260505012019 75 157 2.0 4.0 0.00 0.00 0.00 86 1005.3
20260505011514 75 138 2.0 4.0 0.00 0.00 0.00 86 1005.3
20260505011011 76 196 6.0 10.0 0.00 0.00 0.00 86 1005.2
20260505010507 76 193 2.0 2.0 0.00 0.00 0.00 85 1005.5
20260505010004 76 184 3.0 3.0 0.00 0.00 0.00 85 1005.4
20260505005500 76 202 2.0 2.0 0.00 0.00 0.00 85 1005.3
20260505004958 76 170 2.0 2.0 0.00 0.00 0.00 85 1005.4
20260505004454 76 173 2.0 3.0 0.00 0.00 0.00 84 1005.4
20260505003951 76 161 3.0 4.0 0.00 0.00 0.00 84 1005.2
20260505003448 77 179 3.0 4.0 0.00 0.00 0.00 84 1005.4
20260505002944 77 208 1.0 1.0 0.00 0.00 0.00 84 1005.2
20260505002441 77 192 2.0 6.0 0.00 0.00 0.00 83 1005.6
20260505001939 77 188 1.0 2.0 0.00 0.00 0.00 83 1005.5
20260505001436 77 195 1.0 1.0 0.00 0.00 0.00 82 1005.5
20260505000933 77 178 2.0 3.0 0.00 0.00 0.00 82 1005.5
20260505000431 77 180 2.0 3.0 0.00 0.00 0.00 81 1005.6
20260504235928 78 177 2.0 2.0 0.00 0.00 0.00 81 1005.6
20260504235425 78 173 3.0 3.0 0.00 0.00 0.00 81 1005.8
20260504234921 78 173 3.0 6.0 0.00 0.00 0.00 80 1005.7
20260504234419 78 207 2.0 3.0 0.00 0.00 0.00 80 1005.6
20260504233915 78 133 2.0 3.0 0.00 0.00 0.00 79 1005.6
20260504233411 79 185 2.0 2.0 0.00 0.00 0.00 79 1005.8
20260504232908 78 99 2.0 4.0 0.00 0.00 0.00 79 1005.7
20260504232405 78 107 2.0 3.0 0.00 0.00 0.00 79 1005.7
20260504231902 79 160 6.0 9.0 0.00 0.00 0.00 78 1005.8
20260504231358 79 186 4.0 6.0 0.00 0.00 0.00 78 1005.6
20260504230855 79 157 3.0 4.0 0.00 0.00 0.00 77 1005.9
20260504230352 79 194 2.0 2.0 0.00 0.00 0.00 77 1006.0
20260504225851 80 154 4.0 6.0 0.00 0.00 0.00 77 1005.8
20260504225347 80 200 2.0 3.0 0.00 0.00 0.00 76 1005.8
20260504224844 80 179 2.0 4.0 0.00 0.00 0.00 75 1006.1
20260504224341 80 193 5.0 7.0 0.00 0.00 0.00 74 1006.1
20260504223838 81 197 4.0 4.0 0.00 0.00 0.00 74 1006.2
20260504223333 81 159 1.0 2.0 0.00 0.00 0.00 74 1006.0
20260504222830 81 179 1.0 2.0 0.00 0.00 0.00 73 1006.4
20260504222327 81 179 2.0 2.0 0.00 0.00 0.00 73 1006.6
20260504221826 82 179 1.0 2.0 0.00 0.00 0.00 73 1006.5
20260504221322 82 184 2.0 2.0 0.00 0.00 0.00 72 1006.5
20260504220819 82 180 2.0 3.0 0.00 0.00 0.00 72 1006.3
20260504220316 82 149 2.0 2.0 0.00 0.00 0.00 72 1006.6
20260504215813 82 161 3.0 3.0 0.00 0.00 0.00 72 1006.4
20260504215309 81 178 2.0 3.0 0.00 0.00 0.00 73 1006.6
20260504214805 82 192 5.0 8.0 0.00 0.00 0.00 70 1006.6
20260504214302 82 195 2.0 3.0 0.00 0.00 0.00 71 1006.7
20260504213759 82 122 3.0 4.0 0.00 0.00 0.00 71 1006.6
20260504213255 82 187 2.0 6.0 0.00 0.00 0.00 72 1006.7
20260504212753 82 218 2.0 4.0 0.00 0.00 0.00 72 1006.8
20260504212248 83 116 2.0 3.0 0.00 0.00 0.00 71 1006.8
20260504211746 82 126 4.0 6.0 0.00 0.00 0.00 71 1007.1
20260504211242 83 89 2.0 2.0 0.00 0.00 0.00 72 1007.0
20260504210740 82 224 1.0 2.0 0.00 0.00 0.00 71 1007.4
20260504210237 82 209 1.0 1.0 0.00 0.00 0.00 71 1007.3
20260504205733 82 158 4.0 7.0 0.00 0.00 0.00 72 1007.2
20260504205231 83 188 2.0 2.0 0.00 0.00 0.00 71 1007.2
20260504204729 84 134 2.0 4.0 0.00 0.00 0.00 70 1007.3
20260504204228 82 111 5.0 9.0 0.00 0.00 0.00 71 1007.3
20260504203727 83 171 3.0 4.0 0.00 0.00 0.00 71 1007.3
20260504203224 82 218 1.0 2.0 0.00 0.00 0.00 72 1007.6
20260504202724 83 154 5.0 8.0 0.00 0.00 0.00 71 1007.9
20260504202221 83 170 2.0 2.0 0.00 0.00 0.00 70 1007.5
20260504201718 82 208 4.0 4.0 0.00 0.00 0.00 72 1007.4
20260504201215 83 198 2.0 2.0 0.00 0.00 0.00 71 1007.5
20260504200713 82 137 2.0 3.0 0.00 0.00 0.00 72 1007.5
20260504200209 84 73 4.0 6.0 0.00 0.00 0.00 69 1007.7
20260504195705 84 189 4.0 8.0 0.00 0.00 0.00 70 1007.9
20260504195201 83 180 2.0 2.0 0.00 0.00 0.00 72 1007.8
20260504194658 82 192 3.0 6.0 0.00 0.00 0.00 73 1007.8
20260504194154 82 175 3.0 6.0 0.00 0.00 0.00 72 1008.0
20260504193651 81 167 3.0 7.0 0.00 0.00 0.00 74 1008.2
20260504193149 81 92 4.0 6.0 0.00 0.00 0.00 74 1008.4
20260504192647 82 177 4.0 8.0 0.00 0.00 0.00 71 1008.3
20260504192144 83 211 0.0 1.0 0.00 0.00 0.00 71 1008.3
20260504191643 82 197 1.0 1.0 0.00 0.00 0.00 73 1008.3
20260504191138 82 196 1.0 2.0 0.00 0.00 0.00 73 1008.1
20260504190634 83 159 1.0 1.0 0.00 0.00 0.00 71 1008.1
20260504190131 81 184 2.0 3.0 0.00 0.00 0.00 74 1008.2
20260504185628 81 192 1.0 2.0 0.00 0.00 0.00 73 1008.7
20260504185125 81 180 1.0 1.0 0.00 0.00 0.00 74 1008.3
20260504184620 81 186 2.0 2.0 0.00 0.00 0.00 74 1008.6
20260504184115 80 153 3.0 6.0 0.00 0.00 0.00 75 1008.7
20260504183613 80 202 2.0 3.0 0.00 0.00 0.00 74 1008.8
20260504183111 81 160 3.0 3.0 0.00 0.00 0.00 74 1008.8
20260504182608 81 176 3.0 6.0 0.00 0.00 0.00 75 1008.8
20260504182105 81 188 2.0 3.0 0.00 0.00 0.00 74 1008.8
20260504181602 81 196 3.0 6.0 0.00 0.00 0.00 73 1008.7
20260504181100 82 194 2.0 3.0 0.00 0.00 0.00 72 1008.7
20260504180559 81 169 1.0 2.0 0.00 0.00 0.00 73 1008.8
20260504180058 81 238 2.0 3.0 0.00 0.00 0.00 73 1008.9
20260504175554 81 198 1.0 2.0 0.00 0.00 0.00 74 1008.8
20260504175051 81 208 2.0 3.0 0.00 0.00 0.00 74 1009.1
20260504174549 80 212 1.0 2.0 0.00 0.00 0.00 76 1009.2
20260504174045 80 84 3.0 4.0 0.00 0.00 0.00 75 1009.2
20260504173542 79 209 4.0 6.0 0.00 0.00 0.00 76 1009.0
20260504173040 79 148 4.0 6.0 0.00 0.00 0.00 76 1009.2
20260504172536 80 219 2.0 4.0 0.00 0.00 0.00 75 1009.2
20260504172033 80 136 1.0 3.0 0.00 0.00 0.00 75 1009.5
20260504171529 80 194 2.0 4.0 0.00 0.00 0.00 75 1009.7
20260504171027 80 181 1.0 1.0 0.00 0.00 0.00 75 1009.5
20260504170522 80 205 1.0 2.0 0.00 0.00 0.00 75 1009.7
20260504160437 78 172 5.0 7.0 0.00 0.00 0.00 76 1009.7
20260504150900 79 143 3.0 4.0 0.00 0.00 0.00 75 1009.9
20260504150358 80 168 2.0 3.0 0.00 0.00 0.00 75 1010.0
20260504141327 78 184 0.0 2.0 0.00 0.00 0.00 77 1009.8
20260504140824 78 97 3.0 4.0 0.00 0.00 0.00 77 1009.9
20260504140319 78 200 1.0 1.0 0.00 0.00 0.00 77 1009.8
20260504130748 74 195 0.0 1.0 0.00 0.00 0.00 83 1010.2
20260504130244 73 200 0.0 0.0 0.00 0.00 0.00 85 1010.2
20260504120208 69 319 0.0 1.0 0.00 0.00 0.00 90 1009.9
20260504110635 68 303 0.0 0.0 0.00 0.00 0.00 91 1010.1
20260504110131 68 283 0.0 0.0 0.00 0.00 0.00 91 1010.0
20260504100551 65 209 0.0 0.0 0.00 0.00 0.00 92 1010.5
20260504081945 68 202 0.0 0.0 0.00 0.00 0.00 83 1010.7
20260504081442 68 201 0.0 1.0 0.00 0.00 0.00 83 1010.7
20260504080938 68 201 0.0 0.0 0.00 0.00 0.00 82 1010.8
20260504080435 68 202 0.0 0.0 0.00 0.00 0.00 82 1011.1
20260504070403 69 186 0.0 1.0 0.00 0.00 0.00 78 1011.9
20260504050749 69 197 0.0 0.0 0.00 0.00 0.00 76 1013.2
20260504050246 69 191 1.0 1.0 0.00 0.00 0.00 76 1013.4
20260504045739 69 199 0.0 1.0 0.00 0.00 0.00 76 1013.6
20260504045233 69 199 0.0 0.0 0.00 0.00 0.00 77 1013.5
20260504044731 69 192 0.0 0.0 0.00 0.00 0.00 76 1013.6
20260504044228 69 198 0.0 0.0 0.00 0.00 0.00 75 1013.8
20260504043725 70 200 0.0 0.0 0.00 0.00 0.00 75 1013.7
20260504043222 70 199 0.0 0.0 0.00 0.00 0.00 74 1013.7
20260504042720 70 200 0.0 0.0 0.00 0.00 0.00 74 1013.9
20260504042216 70 197 0.0 0.0 0.00 0.00 0.00 74 1014.0
20260504041712 70 132 1.0 2.0 0.00 0.00 0.00 74 1013.9
20260504041208 70 201 0.0 0.0 0.00 0.00 0.00 73 1014.1
20260504040705 71 201 0.0 0.0 0.00 0.00 0.00 73 1013.8
20260504040202 71 199 0.0 0.0 0.00 0.00 0.00 73 1013.7
20260504035658 71 195 1.0 2.0 0.00 0.00 0.00 73 1013.7
20260504035155 71 200 0.0 0.0 0.00 0.00 0.00 73 1013.4
20260504034653 71 131 2.0 3.0 0.00 0.00 0.00 73 1013.8
20260504034150 71 186 1.0 1.0 0.00 0.00 0.00 73 1013.8
20260504033648 71 201 0.0 1.0 0.00 0.00 0.00 72 1013.7
20260504033145 71 192 0.0 0.0 0.00 0.00 0.00 72 1013.6
20260504032641 71 192 1.0 1.0 0.00 0.00 0.00 71 1013.8
20260504032139 71 184 0.0 0.0 0.00 0.00 0.00 71 1013.7
20260504031636 71 202 1.0 2.0 0.00 0.00 0.00 71 1013.9
20260504031132 71 211 0.0 0.0 0.00 0.00 0.00 71 1013.7
20260504030629 71 200 0.0 1.0 0.00 0.00 0.00 70 1013.6
20260504030125 71 204 0.0 0.0 0.00 0.00 0.00 70 1013.6
20260504025622 71 188 0.0 1.0 0.00 0.00 0.00 69 1013.6
20260504025119 71 206 0.0 0.0 0.00 0.00 0.00 69 1013.6
20260504024616 71 209 0.0 0.0 0.00 0.00 0.00 68 1013.8
20260504024113 71 197 0.0 0.0 0.00 0.00 0.00 68 1013.8
20260504023609 71 199 0.0 0.0 0.00 0.00 0.00 68 1013.6
20260504023105 71 202 0.0 0.0 0.00 0.00 0.00 68 1013.5
20260504022602 71 186 1.0 2.0 0.00 0.00 0.00 68 1013.7